1998 BR26
ephemeris date magn radius delta ra dec elong phase
Today20 Oct 202529.41.436 AU1.729 AU17h28m-21°04'56.1°35.1°
1998 BR26 - 2025-10-20
astro.vanbuitenen.nl


 
-1 year
-1 month
-1 day
Now
+1 day
+1 month
+1 year

The interactive orbit chart above shows the body's path through the solar system and its position at the given date. Green and blue lines are shown perpendicular to the ecliptic plane: Green if the path is above the ecliptic plane, blue if it is below. (Left-click and drag to rotate the view; Right-click and drag to move the view; Use scroll wheel to zoom in our out.)

The orbital elements of 1998 BR26 are:

            e (Eccentricity)                : 0.4896141
            a (Semimajor axis)              : 1.6422728
            i (Inclination)                 : 12.21444
            Ω (Longitude of ascending node) : 129.84009
            ω (Argument of perihelion)      : 62.19452
            M (Mean anomaly)                : 329.33967
            Epoch                           : 2025 May 05

            L (Longitude of perihelion)     : 191.48981
            B (Latitude of perihelion)      : 10.78606
            P (Orbital period in years)     : 2.10            
        

The light curve chart below shows the estimated development of the minor planet's magnitude.


The all-sky chart below shows the path of the minor planet over the same period as the light curve. The current position is marked yellow.





The following chart shows the path of the minor planet in the next few days. The field of view is optimized for (~10x50) binoculars and finderscopes.




Ephemerides:
Date       Time       RA (2000)    DEC (2000)    delta   radius  elong  phase   PA    magn
2025-10-20 00:00 UT   17 28 11.0   -21 04 45     1.729    1.436   56.1   35.1    92   29.4 
2025-10-20 14:56 UT   17 30 21.4   -21 09 58     1.737    1.440   56.0   35.0    92   29.4 
2025-10-21 00:00 UT   17 31 40.3   -21 13 04     1.742    1.443   55.9   34.9    91   29.4 
2025-10-22 00:00 UT   17 35 08.4   -21 20 60     1.755    1.450   55.7   34.6    91   29.5 
2025-10-23 00:00 UT   17 38 35.2   -21 28 33     1.767    1.458   55.6   34.3    91   29.5 
2025-10-24 00:00 UT   17 42 00.8   -21 35 45     1.780    1.465   55.4   34.0    91   29.5 
2025-10-25 00:00 UT   17 45 25.2   -21 42 35     1.793    1.472   55.2   33.7    90   29.5 
2025-10-26 00:00 UT   17 48 48.4   -21 49 04     1.806    1.479   54.9   33.4    90   29.5 
2025-10-27 00:00 UT   17 52 10.3   -21 55 12     1.819    1.486   54.7   33.1    90   29.5 
2025-10-28 00:00 UT   17 55 31.1   -22 00 59     1.832    1.493   54.5   32.8    89   29.6 
2025-10-29 00:00 UT   17 58 50.6   -22 06 26     1.845    1.500   54.3   32.5    89   29.6 
2025-10-30 00:00 UT   18 02 09.0   -22 11 34     1.858    1.508   54.0   32.2    89   29.6 


    Terminology:
            
    delta:  distance between minor planet and earth in AU
    radius: distance between minor planet and sun in AU
    magn:   magnitude (brightness) estimate    
    ra:     right ascension in hours (24h = 360deg)
    dec:    declination in degrees
    elong:  elongation in degrees (angle sun-earth-minor planet)    
    phase:  phase angle in degrees (angle sun-minor planet-earth)        
    AU:     Astronomical Unit (mean distance between earth and sun: 149597870.7 km
    

Orbital elements provided by the MPC (Minor Planet Center).
Calculations by a modified version of AAPlus, a C# implementation of the AA+ project by PJ Naughter from the algorithms presented in the book "Astronomical Algorithms" by Jean Meeus.
NGC2000 dso catalog and star labels from VizieR as provided by the Strasbourg astronomical Data Center.
Tycho2 catalog from the ESO archive.